Location: Caltech
(34.1382°N, 118.1253°W)
Time: 07:59:30
(UTC-07:00)

Iridium 59 - Visible Passes

Search period start: 05 July 2015 00:00
Search period end: 15 July 2015 00:00
Orbit: 776 x 779 km, 86.4° (Epoch: 05 July)

Date Brightness Start Highest point End Pass type
(mag) Time Alt. Az. Time Alt. Az. Time Alt. Az.
05 Jul 6.3 21:36:05 10° SSW 21:40:57 40° W 21:45:50 10° NNW visible
06 Jul 5.2 21:02:09 10° S 21:07:21 78° W 21:12:36 10° N visible
07 Jul 5.2 20:28:51 10° SSE 20:33:53 53° E 20:38:58 10° NNE visible
07 Jul 7.8 22:12:16 10° WSW 22:15:04 14° WNW 22:17:34 10° NW visible
08 Jul 7.1 21:36:47 10° SW 21:41:11 27° W 21:45:31 10° NNW visible
09 Jul 5.9 21:02:25 10° SSW 21:07:29 52° W 21:12:34 10° N visible
10 Jul 5.0 20:28:44 10° S 20:33:56 81° E 20:39:10 10° N visible
11 Jul 7.7 21:37:51 10° WSW 21:41:28 18° WNW 21:44:54 10° NW visible
12 Jul 6.7 21:02:55 10° SSW 21:07:40 34° W 21:12:23 10° NNW visible
13 Jul 5.5 20:28:51 10° S 20:34:02 68° W 20:39:14 10° N visible
14 Jul 8.0 21:39:42 10° W 21:41:50 12° WNW 21:43:36 10° NW visible
